This demonstration page uses our WeatherBlox Daily Observations layout. Learn more.

Left ArrowRight Arrow

39.29038, -76.61219

Hourly Observations for May 15, 2020

Temp ( °F °C ) Dew Point ( °F °C ) Humidity (%) Winds ( mph kmh ) Pressure ( in mb ) Visibility ( mi km ) Precip ( " mm )
12:54 am 00:54 undefined 63 17.2 56 13.3 78 78 undefined N/A 30.05 1018 N/A N/A
1:54 am 01:54 undefined 63 17.2 57 13.9 81 81 undefined N/A 30.04 1017 N/A N/A
2:54 am 02:54 undefined 66 18.9 59 15 78 78 undefined N/A 30.04 1017 N/A N/A
3:54 am 03:54 undefined 66 18.9 59 15 78 78 undefined N/A 30.01 1016 N/A N/A
4:54 am 04:54 undefined 66 18.9 59 15 78 78 undefined N/A 30.04 1017 N/A N/A
5:54 am 05:54 undefined 64 17.8 59 15 84 84 undefined N/A 30.04 1017 N/A N/A
6:54 am 06:54 undefined 65 18.3 60 15.6 84 84 undefined N/A 30.06 1018 N/A N/A
7:54 am 07:54 undefined 67 19.4 61 16.1 81 81 undefined N/A 30.08 1019 N/A N/A
8:54 am 08:54 undefined 69 20.6 61 16.1 76 76 undefined N/A 30.07 1018 N/A N/A
9:54 am 09:54 undefined 73 22.8 62 16.7 69 69 undefined N/A 30.06 1018 N/A N/A
10:54 am 10:54 undefined 77 25 63 17.2 62 62 undefined N/A 30.04 1017 N/A N/A
11:54 am 11:54 undefined 81 27.2 61 16.1 51 51 undefined N/A 30.02 1017 N/A N/A
12:54 pm 12:54 undefined 83 28.3 61 16.1 48 48 undefined N/A 30.00 1016 N/A N/A
1:54 pm 13:54 undefined 86 30 63 17.2 46 46 undefined N/A 29.96 1014 N/A N/A
2:54 pm 14:54 undefined 88 31.1 57 13.9 35 35 undefined N/A 29.93 1014 N/A N/A
3:54 pm 15:54 undefined 88 31.1 55 12.8 33 33 undefined N/A 29.91 1013 N/A N/A
4:54 pm 16:54 undefined 87 30.6 53 11.7 31 31 undefined N/A 29.89 1012 N/A N/A
5:54 pm 17:54 undefined 85 29.4 55 12.8 36 36 undefined N/A 29.88 1012 N/A N/A
6:54 pm 18:54 undefined 84 28.9 55 12.8 37 37 undefined N/A 29.87 1012 N/A N/A
7:54 pm 19:54 undefined 83 28.3 54 12.2 37 37 undefined N/A 29.87 1011 N/A N/A
8:54 pm 20:54 undefined 80 26.7 54 12.2 41 41 undefined N/A 29.87 1012 N/A N/A
9:54 pm 21:54 undefined 79 26.1 54 12.2 42 42 undefined N/A 29.90 1012 N/A N/A
10:54 pm 22:54 undefined 78 25.6 56 13.3 47 47 undefined N/A 29.92 1013 N/A N/A
11:54 pm 23:54 undefined 77 25 56 13.3 48 48 undefined N/A 29.93 1013 N/A N/A

Powered by AerisWeather